Location: Ajisawe
(8.4333°N, 4.3833°E)
Time: 12:58:53
(UTC+00:00)

Courier 1B Rocket - Pass Details

Date: 26 April 2021
Orbit: 920 x 1202 km, 28.2° (Epoch: 07 May)

Event Time Altitude Azimuth Distance (km) Brightness Sun altitude
Rises 14:35:57 0° 255° (WSW) 3,592 8.6 46.6°
Reaches altitude 10° 14:38:42 10° 261° (W) 2,625 8.2 46.0°
Maximum altitude 14:44:42 47° 334° (NNW) 1,193 6.6 44.5°
Drops below altitude 10° 14:50:40 10° 47° (NE) 2,612 7.1 43.1°
Sets 14:53:24 0° 53° (NE) 3,572 7.7 42.4°
